Temperature
14 14 14 14 14 14 14 14 14 14 15 15 15 15 15 15 15 15 16 16 16 16 16 16 17 17 17 17 17 17 17 17 17 17 17 17 17 17 17 17 18 18 18
14 14 14 14 14 14 14 14 14 14 15 15 15 15 15 15 15 15 16 16 16 16 16 16 16 16 17 17 17 17 17 17 17 17 17 17 17 17 17 17 17 17 17
14 14 14 14 14 14 14 14 14 14 15 15 15 15 15 15 15 15 15 16 16 16 16 16 16 16 16 17 17 17 17 17 17 17 17 17 17 17 17 17 17 17 17
14 14 14 14 14 14 14 14 14 15 15 15 15 15 15 15 15 15 15 15 16 16 16 16 16 16 16 16 17 17 17 17 17 17 17 17 17 17 17 17 17 17 17
14 14 14 14 14 14 14 14 14 14 15 15 15 15 15 15 15 15 15 15 15 16 16 16 16 16 16 16 16 16 17 17 17 17 17 17 17 17 17 17 17 17 17
14 14 14 14 14 14 14 14 14 14 14 15 15 15 15 15 15 15 15 15 15 15 16 16 16 16 16 16 16 16 16 17 17 17 17 17 17 17 17 17 17 17 17
14 14 14 14 14 14 14 14 14 14 15 15 15 15 15 15 15 15 15 15 15 15 15 16 16 16 16 16 16 16 16 16 17 17 17 17 17 17 17 17 17 17 17
14 14 14 14 14 14 14 14 14 14 14 14 15 15 15 15 15 15 15 15 15 15 15 15 15 16 16 16 16 16 16 16 16 17 17 17 17 17 17 17 17 17 17
14 14 14 14 14 14 14 14 14 14 14 14 14 14 14 14 14 14 14 15 15 15 15 15 15 15 15 16 16 16 16 16 16 16 16 17 16 17 17 17 17 17 17
14 14 14 14 14 14 14 14 14 14 14 14 14 14 14 14 14 14 14 14 14 15 15 15 15 15 15 16 16 16 16 16 16 16 16 16 16 16 16 17 17 17 17
15 14 14 14 14 14 14 14 14 14 14 14 14 14 14 14 14 14 14 14 14 14 15 15 15 15 15 15 15 15 16 16 16 16 16 16 16 16 16 16 16 17 17
15 15 14 14 14 14 14 14 14 14 14 14 14 14 14 14 13 14 13 14 14 14 14 14 15 15 15 15 15 15 15 15 16 16 16 16 16 16 16 16 16 16 17
15 15 15 14 14 14 14 14 14 14 14 14 14 14 13 13 13 13 13 13 14 14 14 14 14 14 15 15 15 15 15 15 15 16 16 16 16 16 16 16 16 16 16
15 15 15 14 14 14 14 14 14 14 14 14 14 13 13 13 13 13 13 13 13 14 14 14 14 14 14 14 15 15 15 15 15 15 16 16 16 16 16 16 16 16 16
15 15 14 14 14 14 14 14 14 14 14 14 14 14 14 13 13 13 13 13 13 13 13 14 14 14 14 14 14 14 15 15 15 15 15 15 15 16 16 16 16 16 16
15 14 14 14 14 14 14 14 14 14 14 14 13 13 13 13 13 13 13 13 13 13 13 13 13 14 14 14 14 14 14 14 15 15 15 15 15 15 15 15 16 16 16
14 14 14 14 14 14 14 14 14 13 13 13 13 13 13 13 13 13 13 13 13 13 13 13 13 13 13 14 14 14 14 14 14 14 15 15 15 15 15 15 15 15 15
14 14 14 14 14 14 13 13 13 13 13 13 13 13 13 13 13 13 13 13 13 13 12 13 13 13 13 13 13 14 14 14 14 14 14 14 14 15 15 15 15 15 15
14 14 14 13 13 13 13 13 13 13 13 13 13 13 13 13 13 13 13 13 12 12 12 12 13 13 13 13 13 13 13 14 14 14 14 14 14 14 14 14 15 15 15
14 13 13 13 13 13 13 13 13 13 13 13 12 12 12 12 12 12 12 12 12 12 12 12 12 12 13 13 13 13 13 13 13 14 14 14 14 14 14 14 14 14 15
13 13 13 13 13 13 12 12 12 12 12 12 12 12 12 12 12 12 12 12 12 12 11 11 12 12 12 12 12 12 12 13 13 13 13 13 13 14 14 14 14 14 14
13 13 13 12 12 12 12 12 12 12 12 12 12 12 12 12 12 11 11 11 11 11 11 11 11 11 11 12 12 12 12 12 12 13 13 13 13 13 13 13 14 14 14
12 12 12 12 12 12 12 11 11 11 11 11 11 11 11 11 11 11 11 11 11 11 10 10 10 11 11 11 11 11 11 11 12 12 12 12 13 13 13 13 13 13 13
12 12 12 11 11 11 11 11 11 11 11 11 11 10 10 10 10 10 10 10 11 11 10 10 10 10 10 10 10 10 11 11 11 12 12 11 12 12 13 13 13 13 13
12 11 11 11 11 11 10 10 10 10 10 10 10 10 10 10 10 10 10 10 10 10 10 10 10 10 10 10 10 10 10 10 10 11 11 11 12 12 12 13 13 13 13
11 11 11 10 10 10 10 10 9 10 10 10 10 10 10 9 9 9 9 9 9 9 9 10 10 10 10 10 10 10 10 10 10 10 11 11 11 11 11 12 12 12 12
Wind_Speed
3 4 4 6 7 7 6 5 5 6 6 6 6 4 4 4 5 5 5 6 5 5 3 2 2 1 1 2 2 1 2 3 4 6 8 10 10 12 12 13 13 13 13
4 3 4 4 6 6 6 5 4 4 4 4 5 5 4 4 5 5 5 5 6 5 4 3 3 2 2 2 2 3 4 5 5 6 7 9 10 11 12 12 12 13 13
5 4 3 4 5 7 6 5 5 5 4 4 5 5 4 4 5 5 5 5 5 6 6 4 3 3 2 2 3 5 5 6 5 6 7 9 10 10 11 11 12 13 13
6 5 3 4 7 7 5 4 4 4 5 5 4 4 4 4 5 5 5 6 6 6 6 5 5 4 3 2 3 4 4 5 5 5 6 8 9 10 10 11 12 13 13
6 5 4 4 7 5 4 4 4 3 4 5 4 4 5 5 5 5 6 6 7 7 6 6 6 5 4 3 2 3 3 4 4 4 5 7 8 8 10 12 13 13 13
6 6 4 5 6 4 5 5 4 4 3 4 3 4 4 5 5 6 5 6 7 7 7 7 6 6 5 4 3 2 2 3 3 4 5 6 7 8 9 11 12 12 12
6 5 4 4 5 4 4 5 3 5 5 4 3 4 4 4 5 6 5 5 6 7 7 7 6 6 5 5 3 2 1 1 2 3 4 6 7 8 9 10 10 11 11
6 4 4 3 4 4 6 6 4 3 4 5 3 3 4 5 5 5 5 6 6 6 6 7 7 7 6 5 4 3 1 1 1 2 3 5 6 7 8 9 10 10 10
6 5 4 3 4 3 4 4 4 4 3 4 4 3 3 2 3 4 5 5 6 5 5 5 7 7 7 5 4 3 2 1 1 2 3 4 6 7 8 9 10 10 10
6 6 5 4 3 3 4 4 4 3 3 3 3 3 2 1 1 3 4 4 5 5 5 5 5 6 6 6 5 4 3 2 2 3 3 4 5 7 8 10 11 11 11
6 6 5 4 3 3 3 4 4 4 3 2 2 2 3 3 2 2 3 5 4 4 4 4 4 5 6 5 5 5 4 2 1 2 3 4 5 6 8 9 11 12 12
4 5 4 4 3 3 3 3 3 3 3 2 2 2 2 2 1 1 1 3 4 4 4 4 3 4 5 5 5 6 5 3 2 1 2 4 5 6 7 8 10 11 13
3 4 3 3 3 3 3 3 3 3 3 3 2 1 1 0 0 1 1 1 2 3 3 3 3 4 4 5 5 6 5 4 3 2 2 3 5 6 7 7 9 11 12
2 3 3 3 3 3 3 3 3 3 3 3 3 2 1 1 0 0 1 0 2 3 3 4 3 3 5 5 5 5 5 4 3 3 3 3 4 5 7 7 7 9 11
2 3 3 3 3 3 3 3 3 3 3 3 3 3 2 2 1 0 0 1 1 2 3 3 3 4 5 5 5 4 4 5 4 4 3 4 4 4 5 6 6 7 9
3 3 3 3 3 3 3 3 3 3 4 4 3 3 3 2 2 1 0 0 1 1 2 3 3 3 4 5 6 4 4 5 5 5 4 4 5 5 6 6 6 7 7
3 3 3 3 4 4 3 3 3 3 4 4 4 3 4 3 3 3 2 1 0 1 3 4 3 3 3 4 5 5 5 4 5 5 5 5 6 6 7 7 7 7 7
3 3 3 4 4 4 4 3 4 4 3 4 4 4 4 3 3 3 2 2 1 1 2 4 4 3 3 4 4 4 4 4 5 6 6 6 7 7 8 8 8 8 8
4 4 4 4 3 3 3 3 3 3 3 3 3 3 4 4 4 3 3 3 2 2 2 3 4 3 3 3 3 4 4 3 5 6 7 7 8 8 9 9 9 9 9
4 4 4 3 3 3 3 3 3 3 3 4 4 3 3 3 3 3 3 3 3 2 2 3 4 4 3 3 2 3 4 3 4 4 5 6 7 9 10 10 10 11 11
4 3 4 4 4 3 3 3 3 3 3 4 5 4 4 5 5 4 3 3 2 2 2 3 4 4 4 3 3 3 4 5 4 3 3 4 4 4 6 9 10 11 12
4 4 4 4 4 4 6 6 4 2 2 3 5 5 6 5 8 8 8 6 4 3 3 3 4 5 6 5 4 4 4 4 4 3 3 4 3 5 5 7 10 12 13
3 4 4 4 4 5 8 8 7 3 2 3 4 5 6 7 8 5 8 9 7 8 7 5 6 7 7 6 5 5 5 6 7 4 3 5 4 5 5 8 11 13 13
2 2 3 3 3 5 9 8 8 4 3 4 4 4 5 6 7 7 6 7 7 7 8 6 7 9 9 7 6 7 7 7 6 4 4 5 4 5 5 6 10 12 13
2 2 2 3 3 6 9 9 8 3 3 5 5 5 5 6 11 11 6 7 9 9 10 12 14 14 16 15 10 5 5 5 6 5 4 5 4 4 4 5 7 11 12
0 2 2 3 3 5 8 9 8 2 3 5 5 6 8 10 12 12 6 6 8 10 9 10 10 12 11 11 12 8 7 7 6 5 4 5 4 3 3 3 4 6 8
Wind_Direction
38 28 22 20 14 11 8 2 3 4 7 6 8 8 2 354 353 354 346 351 358 353 341 351 0 342 339 335 347 37 85 75 79 98 109 115 112 115 119 122 124 126 127
49 35 22 16 9 4 4 5 5 2 0 3 5 9 7 0 357 354 354 357 2 3 2 356 351 350 5 12 60 87 98 86 84 102 112 121 120 119 122 125 130 130 128
48 43 27 11 359 0 7 12 10 14 13 13 12 9 13 10 12 8 9 8 8 9 8 9 9 6 5 37 67 87 97 96 89 101 114 124 127 129 129 132 134 131 128
48 47 31 7 360 9 14 11 12 12 9 8 8 8 13 14 18 18 24 20 17 13 9 13 21 18 14 38 69 83 94 104 102 106 117 124 128 129 130 136 137 134 131
45 50 33 9 9 17 14 12 20 17 6 1 7 22 18 19 15 24 24 21 19 17 16 16 21 22 22 36 60 87 94 102 104 111 123 130 132 132 130 133 135 134 133
40 44 35 17 17 19 14 13 16 19 15 358 16 25 19 19 25 26 20 21 21 22 25 26 22 16 23 32 44 69 89 100 108 122 134 138 141 141 136 134 136 138 139
31 40 34 20 19 24 13 9 13 18 14 1 27 13 7 19 35 27 17 21 20 18 23 26 24 20 17 19 21 36 49 88 106 123 139 150 153 154 151 149 149 148 148
19 26 34 18 13 18 17 17 22 18 15 21 40 45 12 357 2 13 16 23 15 15 20 21 22 21 19 14 4 7 7 36 111 146 159 162 161 166 165 162 161 159 158
18 25 28 26 18 25 18 14 21 36 21 15 39 74 74 0 328 343 7 18 13 15 9 13 21 17 17 15 4 359 347 296 221 201 196 187 182 181 181 178 175 173 170
17 20 23 27 25 23 20 12 31 33 45 22 13 36 80 140 49 346 343 357 6 12 7 10 13 12 15 16 6 354 344 306 256 221 211 211 206 204 200 194 189 185 183
13 17 22 26 20 15 15 19 26 36 44 48 29 18 38 45 56 81 345 335 346 348 353 353 1 6 9 14 8 1 357 342 294 240 219 219 224 219 214 207 200 196 194
357 8 17 22 19 15 8 10 22 31 34 46 46 45 51 40 12 59 5 329 329 322 331 343 355 353 359 8 5 1 359 354 331 265 231 225 224 226 225 221 213 205 203
354 348 3 7 9 7 11 18 28 22 20 27 26 27 40 26 219 148 122 320 330 316 328 337 338 349 352 357 353 350 343 340 333 294 256 243 233 231 233 231 222 215 210
315 327 358 7 6 10 19 25 25 12 20 17 11 8 2 343 335 190 171 89 352 336 337 321 323 341 347 345 341 342 342 331 313 293 269 245 233 231 235 234 230 222 217
338 355 7 11 8 13 17 26 23 12 14 13 4 2 359 342 357 328 215 174 142 339 318 311 320 327 338 334 332 332 327 325 311 289 270 245 221 219 229 235 235 228 219
360 6 12 13 11 13 17 26 15 9 21 7 5 9 360 344 352 359 2 210 182 196 274 291 287 302 321 325 325 316 304 307 302 292 276 249 227 222 225 230 234 236 228
11 16 14 24 21 15 15 25 16 17 21 5 6 10 355 354 357 356 360 3 283 199 259 291 283 302 308 313 322 322 308 296 294 286 277 259 240 235 234 235 235 234 230
18 22 32 34 26 19 17 19 7 12 13 356 348 355 344 354 353 348 353 342 316 250 238 287 300 306 298 300 303 307 309 298 287 282 269 257 247 240 236 235 232 229 227
30 29 38 31 18 14 16 15 17 16 10 355 349 347 335 348 339 333 332 327 315 314 265 274 296 296 293 301 308 303 298 295 288 277 265 257 249 242 235 230 228 225 224
42 32 29 22 16 18 19 14 19 24 12 358 352 346 338 336 323 322 327 316 314 317 313 301 300 301 293 301 300 299 306 296 285 283 273 262 251 243 237 230 229 227 223
42 34 32 20 12 17 19 17 12 25 8 352 347 342 337 340 342 337 332 315 319 311 310 306 301 307 301 305 295 289 293 298 287 254 258 262 255 251 247 238 231 228 224
29 35 31 23 17 12 10 21 29 29 3 351 339 331 326 331 337 336 326 319 312 298 288 283 286 285 285 280 281 281 281 293 290 259 232 255 231 245 247 237 232 226 223
35 32 19 18 6 351 8 17 22 37 360 333 325 324 331 333 333 317 321 323 308 297 284 274 272 273 276 271 269 278 271 264 263 261 240 260 239 241 246 239 232 228 226
39 26 10 1 356 354 6 9 11 23 355 331 318 309 306 311 319 322 318 318 307 299 284 279 265 269 272 268 254 261 268 275 274 257 225 252 244 240 242 241 232 225 223
29 7 348 351 347 335 352 357 2 357 344 328 321 321 318 309 318 327 320 308 306 303 299 291 286 282 280 278 271 269 266 269 279 270 227 232 241 241 237 237 234 222 217
341 344 346 336 330 321 339 351 356 349 331 321 319 317 322 322 322 326 314 300 300 299 303 307 302 297 288 280 273 254 245 253 265 267 229 218 231 223 244 234 222 220 216
Height
1541 1540 1538 1537 1535 1534 1532 1531 1529 1529 1528 1527 1526 1526 1526 1526 1526 1526 1526 1526 1526 1527 1527 1527 1527 1527 1526 1524 1522 1522 1524 1525 1525 1525 1526 1526 1527 1528 1530 1532 1535 1538 1540
1542 1541 1539 1537 1536 1534 1533 1531 1530 1529 1528 1527 1526 1526 1525 1525 1526 1526 1526 1526 1527 1527 1527 1528 1528 1527 1526 1523 1521 1521 1524 1526 1527 1527 1528 1529 1530 1531 1533 1535 1538 1540 1543
1543 1541 1540 1538 1536 1535 1533 1532 1530 1529 1528 1527 1527 1526 1526 1526 1526 1526 1526 1527 1527 1527 1528 1528 1528 1528 1526 1525 1524 1524 1526 1528 1529 1530 1531 1531 1533 1534 1535 1537 1539 1542 1545
1544 1542 1541 1539 1538 1536 1535 1533 1531 1530 1529 1528 1527 1527 1526 1526 1526 1526 1527 1527 1527 1528 1528 1528 1529 1528 1528 1527 1527 1528 1529 1530 1531 1532 1533 1534 1535 1536 1537 1537 1540 1543 1546
1545 1544 1542 1540 1539 1537 1536 1534 1532 1531 1530 1529 1528 1528 1527 1527 1527 1527 1527 1528 1528 1528 1529 1529 1529 1529 1529 1530 1530 1530 1531 1532 1533 1534 1535 1536 1537 1538 1538 1538 1541 1545 1548
1547 1545 1544 1542 1541 1539 1537 1535 1534 1532 1531 1530 1529 1529 1529 1528 1528 1528 1528 1528 1529 1529 1529 1530 1530 1530 1531 1531 1532 1532 1533 1534 1535 1536 1537 1538 1539 1540 1541 1542 1544 1547 1549
1549 1547 1545 1544 1542 1540 1539 1537 1535 1534 1532 1531 1531 1530 1530 1530 1530 1529 1529 1529 1530 1530 1530 1530 1531 1531 1531 1532 1533 1533 1534 1535 1536 1537 1538 1539 1541 1542 1544 1545 1547 1549 1551
1550 1549 1547 1546 1544 1542 1540 1539 1537 1535 1534 1533 1532 1532 1532 1533 1531 1531 1530 1530 1530 1530 1531 1531 1531 1531 1532 1532 1533 1534 1535 1536 1537 1538 1539 1540 1542 1543 1545 1546 1548 1550 1552
1552 1550 1549 1547 1546 1544 1542 1540 1539 1537 1536 1535 1534 1534 1533 1533 1533 1533 1532 1531 1531 1531 1531 1531 1532 1532 1532 1533 1533 1534 1535 1536 1537 1538 1539 1540 1542 1544 1545 1547 1549 1551 1552
1553 1552 1550 1549 1547 1546 1544 1542 1541 1539 1538 1537 1536 1536 1536 1535 1534 1534 1533 1533 1532 1532 1532 1532 1532 1532 1532 1533 1533 1534 1535 1536 1537 1538 1539 1540 1542 1543 1545 1547 1549 1550 1552
1554 1552 1551 1550 1549 1547 1546 1544 1543 1541 1540 1539 1538 1537 1537 1536 1536 1535 1534 1533 1533 1533 1532 1532 1532 1532 1532 1533 1533 1534 1534 1535 1536 1537 1538 1540 1541 1543 1544 1546 1548 1550 1551
1554 1553 1552 1551 1550 1548 1547 1546 1544 1543 1542 1540 1539 1539 1538 1537 1537 1536 1535 1534 1533 1533 1533 1532 1532 1532 1532 1532 1533 1533 1534 1534 1535 1536 1537 1538 1540 1541 1543 1544 1546 1548 1550
1555 1554 1553 1552 1550 1549 1548 1547 1546 1544 1543 1542 1541 1540 1539 1538 1538 1537 1536 1534 1533 1533 1533 1533 1532 1532 1532 1532 1532 1532 1532 1533 1534 1535 1536 1537 1538 1539 1541 1542 1544 1546 1548
1555 1554 1553 1552 1551 1550 1549 1547 1546 1545 1544 1543 1542 1541 1540 1539 1538 1537 1537 1535 1534 1533 1533 1532 1532 1532 1532 1531 1531 1531 1531 1532 1532 1533 1534 1535 1536 1537 1539 1540 1542 1543 1545
1555 1554 1553 1552 1551 1550 1549 1548 1547 1546 1544 1544 1543 1542 1541 1540 1539 1538 1537 1536 1536 1533 1532 1532 1532 1531 1531 1530 1530 1530 1530 1530 1530 1531 1531 1532 1533 1535 1536 1537 1539 1541 1542
1555 1554 1553 1552 1551 1550 1549 1548 1547 1546 1545 1544 1543 1542 1541 1540 1539 1538 1537 1536 1535 1534 1532 1531 1531 1530 1530 1529 1529 1528 1528 1528 1528 1528 1529 1530 1530 1532 1533 1534 1535 1537 1539
1555 1554 1553 1552 1551 1549 1548 1547 1546 1545 1544 1544 1543 1542 1540 1539 1538 1537 1536 1535 1534 1533 1531 1530 1529 1529 1528 1527 1527 1526 1526 1525 1525 1526 1526 1526 1527 1528 1529 1530 1532 1533 1535
1554 1553 1552 1551 1550 1549 1548 1547 1546 1545 1544 1543 1542 1541 1540 1539 1537 1536 1535 1534 1533 1532 1530 1528 1527 1526 1526 1525 1524 1523 1523 1522 1522 1522 1522 1523 1523 1524 1525 1526 1528 1529 1530
1553 1552 1551 1550 1549 1548 1547 1546 1545 1544 1543 1542 1541 1540 1538 1537 1536 1535 1533 1532 1531 1530 1528 1527 1525 1524 1523 1522 1521 1520 1520 1519 1519 1519 1519 1519 1520 1520 1521 1522 1523 1525 1526
1552 1551 1550 1549 1548 1547 1546 1545 1544 1543 1542 1541 1539 1538 1537 1536 1534 1533 1532 1530 1529 1527 1526 1524 1522 1521 1520 1519 1518 1517 1516 1515 1515 1515 1515 1515 1515 1516 1517 1518 1519 1520 1521
1551 1550 1549 1548 1547 1546 1544 1543 1542 1541 1540 1539 1538 1536 1535 1534 1533 1531 1530 1528 1526 1525 1523 1521 1520 1518 1517 1516 1515 1513 1512 1511 1510 1511 1510 1510 1511 1511 1512 1513 1514 1515 1516
1550 1549 1547 1546 1545 1544 1543 1542 1541 1539 1538 1537 1535 1534 1533 1531 1530 1529 1527 1526 1524 1522 1520 1518 1516 1515 1513 1512 1511 1510 1508 1507 1505 1506 1506 1505 1506 1505 1506 1507 1508 1509 1510
1548 1547 1546 1545 1544 1543 1541 1540 1539 1537 1536 1534 1533 1531 1530 1528 1527 1525 1523 1522 1521 1519 1518 1516 1513 1511 1509 1508 1507 1505 1504 1502 1501 1501 1501 1499 1500 1500 1501 1501 1502 1503 1504
1547 1546 1545 1544 1542 1541 1540 1538 1537 1535 1533 1532 1530 1528 1526 1524 1523 1521 1519 1517 1516 1515 1513 1511 1509 1507 1505 1504 1502 1501 1499 1497 1495 1496 1496 1494 1494 1494 1495 1495 1496 1497 1498
1545 1544 1543 1542 1541 1539 1538 1536 1534 1532 1531 1529 1527 1525 1523 1521 1519 1517 1515 1512 1510 1509 1507 1505 1503 1501 1500 1498 1497 1495 1493 1492 1489 1488 1490 1488 1487 1488 1488 1488 1490 1491 1492
1543 1542 1541 1540 1538 1537 1535 1533 1531 1529 1527 1526 1524 1522 1520 1517 1515 1513 1510 1508 1505 1502 1500 1498 1496 1494 1493 1492 1491 1489 1487 1485 1483 1481 1482 1483 1481 1482 1481 1481 1483 1484 1486